Weather Service Report


440 
ASUS43 KOAX 311210
RWRNE 

WEATHER ROUNDUP FOR NEBRASKA
NATIONAL WEATHER SERVICE OMAHA NE
700 AM CDT TUE MAR 31 2015

NOTES: SATELLITE DATA IS BEING USED TO AUGMENT CLOUD COVER ABOVE
       12000 FEET.
       "FAIR" INDICATES FEW OR NO CLOUDS BELOW 12,000 FEET WITH NO
       SIGNIFICANT WEATHER AND/OR OBSTRUCTIONS TO VISIBILITY.

  * THESE STATIONS DO NOT REPORT WEATHER SUCH AS RAIN...SNOW OR FOG.
   
NEZ001>004-019>022-054>056-311300-
NEBRASKA PANHANDLE
  
CITY           SKY/WX    TMP DP  RH WIND       PRES   REMARKS
SCOTTSBLUFF    CLEAR     30  24  78 W7        30.03S WCI  23          
6HR MIN TEMP:  29; 6HR MAX TEMP:  43;                                

ALLIANCE       CLEAR     27  22  81 W6        30.02F WCI  20          
6HR MIN TEMP:  26; 6HR MAX TEMP:  38;                                

CHADRON        CLEAR     28  23  81 VRB3      29.98F                  
6HR MIN TEMP:  28; 6HR MAX TEMP:  38;                                

KIMBALL        CLEAR     32  22  67 W5        30.03F WCI  27          
SIDNEY         CLEAR     29  21  72 NW6       30.05F WCI  23          
6HR MIN TEMP:  27; 6HR MAX TEMP:  38;                                

$$
 
NEZ057>060-069>072-079>082-311300-
SOUTHWEST NEBRASKA
  
CITY           SKY/WX    TMP DP  RH WIND       PRES   REMARKS
NORTH PLATTE   CLEAR     29  25  85 NW3       30.04S                  
6HR MIN TEMP:  29; 6HR MAX TEMP:  42;                                

IMPERIAL         N/A     37  20  50 NW5       30.05R WCI  33          
6HR MIN TEMP:  34; 6HR MAX TEMP:  49;                                

LEXINGTON      CLEAR     32  25  74 W5        30.03S WCI  27          
MCCOOK         CLEAR     38  24  57 W3        30.03R                  
6HR MIN TEMP:  35; 6HR MAX TEMP:  51;                                

OGALLALA       CLEAR     28  22  76 W6        30.05S WCI  22          
$$
 
NEZ005>010-023>029-035>040-094-311300-
NORTH CENTRAL NEBRASKA
  
CITY           SKY/WX    TMP DP  RH WIND       PRES   REMARKS
VALENTINE      CLEAR     30  24  78 SW7       30.00F WCI  23          
6HR MIN TEMP:  29; 6HR MAX TEMP:  39;                                

AINSWORTH      CLEAR     37  27  68 SW6       30.01S WCI  32          
BROKEN BOW     CLEAR     31  22  69 CALM      30.02R                  
6HR MIN TEMP:  29; 6HR MAX TEMP:  43;                                

O'NEILL        CLEAR     36  29  75 SW5       30.00S WCI  32          
ORD            CLEAR     29  22  75 NW5       30.01S WCI  24          
6HR MIN TEMP:  29; 6HR MAX TEMP:  38;                                

THEDFORD       PTCLDY    33  26  75 W3        30.03S                  
$$
 
NEZ041-046>049-061>064-073>077-083>087-311300-
SOUTH CENTRAL NEBRASKA
  
CITY           SKY/WX    TMP DP  RH WIND       PRES   REMARKS
GRAND ISLAND   CLEAR     34  26  72 W3        30.02S                  
6HR MIN TEMP:  34; 6HR MAX TEMP:  47;                                

AURORA         CLEAR     36  28  73 NW3       30.01S                  
HASTINGS       CLEAR     38  26  62 CALM      30.01R                  
6HR MIN TEMP:  37; 6HR MAX TEMP:  49;                                

HEBRON         CLEAR     38  28  69 CALM      30.01R                  
HOLDREGE       CLEAR     36  24  62 NW5       30.02S WCI  32          
KEARNEY *      CLEAR     37  23  56 NW7       30.02R WCI  32          
YORK           CLEAR     36  28  75 CALM      30.01S                  
$$
 
NEZ011>018-030>034-042>045-311300-
NORTHEAST NEBRASKA
  
CITY           SKY/WX    TMP DP  RH WIND       PRES   REMARKS
NORFOLK        CLEAR     37  30  75 W5        30.00R WCI  33          
6HR MIN TEMP:  36; 6HR MAX TEMP:  51;                                

ALBION         PTCLDY    32  27  81 NW5       30.01R WCI  27          
BLAIR          CLEAR     46  32  59 W5        29.98S                  
COLUMBUS *     CLEAR     30  21  69 NW5       30.02R WCI  25          
FREMONT        CLEAR     36  30  77 W6        30.00R WCI  32          
TEKAMAH        CLEAR     35  27  72 N6        29.99R WCI  30          
6HR MIN TEMP:  33; 6HR MAX TEMP:  52;                                

WAYNE          CLEAR     30  26  84 S3        30.00S                  
$$

NEZ050>053-065>068-078-088>093-311300-
SOUTHEAST NEBRASKA
  
CITY           SKY/WX    TMP DP  RH WIND       PRES   REMARKS
LINCOLN        CLEAR     38  30  73 N3        30.01R                  
6HR MIN TEMP:  34; 6HR MAX TEMP:  45;                                

OMAHA EPPLEY   PTCLDY    37  31  78 W3        29.99R                  
6HR MIN TEMP:  37; 6HR MAX TEMP:  52;                                

BEATRICE       CLEAR     34  29  81 CALM      30.00R                  
FALLS CITY     CLEAR     47  32  56 N6        29.98R                  
6HR MIN TEMP:  45; 6HR MAX TEMP:  56;                                

NEBRASKA CITY  CLEAR     47  30  50 CALM      29.99R                  
PLATTSMOUTH    CLEAR     47  31  53 CALM      29.99R                  
$$

NEZ044-045-051>053-067-311300-
OMAHA AREA
  
CITY           SKY/WX    TMP DP  RH WIND       PRES   REMARKS
OMAHA EPPLEY   PTCLDY    37  31  78 W3        29.99R                  
6HR MIN TEMP:  37; 6HR MAX TEMP:  52;                                

BLAIR          CLEAR     46  32  59 W5        29.98S                  
FREMONT        CLEAR     36  30  77 W6        30.00R WCI  32          
MILLARD        CLEAR     39  34  80 CALM      29.99R                  
OFFUTT AFB     CLEAR     40  32  73 W5        29.98R                  
PLATTSMOUTH    CLEAR     47  31  53 CALM      29.99R                  
WAHOO          FAIR      31  26  81 NW3       30.00R                  
$$

Return to Home page


Western Regional Climate Center, wrcc@dri.edu